Location: Newark
(54.3386°S, 169.8415°W)
Time: 17:07:55
(UTC+00:00)

Transit 2A Rocket - Pass Details

Date: 27 October 2019
Orbit: 594 x 909 km, 66.7° (Epoch: 20 November)

Event Time Altitude Azimuth Distance (km) Brightness Sun altitude
Rises 07:56:53 0° 235° (SW) 3,480 10.4 -12.2°
Reaches altitude 10° 07:59:43 10° 223° (SW) 2,576 9.2 -12.5°
Maximum altitude 08:04:55 29° 164° (SSE) 1,628 7.0 -13.1°
Drops below altitude 10° 08:10:12 10° 105° (ESE) 2,621 7.5 -13.6°
Enters shadow 08:12:28 - 96° (E) 3,341 7.9 -13.8°
Sets 08:13:06 0° 94° (E) 3,552 - -13.9°
